GW4724 Weather Reports


time (UTC)temp
F
wind
direction
speed
knots
gust
knots
rain 1hr
in
rain 24hr
in
rain mn
in
humidity
%
barometer
mb
20260509173851 61 237 0.9 1.7 0.00 0.03 0.03 77 1012.4
20260509173346 61 115 1.7 2.6 0.00 0.03 0.03 74 1012.7
20260509172843 60 157 0.9 2.6 0.00 0.03 0.03 75 1013.0
20260509172340 61 196 1.7 2.6 0.00 0.03 0.03 76 1012.9
20260509171836 60 27 0.9 2.6 0.00 0.03 0.03 76 1013.0
20260509171331 61 42 1.7 5.2 0.00 0.03 0.03 76 1013.2
20260509170828 61 4 0.0 1.7 0.00 0.03 0.03 75 1013.3
20260509170324 61 4 0.9 1.7 0.00 0.03 0.03 74 1013.3
20260509165824 59 60 0.0 0.0 0.00 0.03 0.03 78 1013.4
20260509165318 59 49 0.0 1.7 0.00 0.03 0.03 78 1013.2
20260509164814 58 30 0.0 1.7 0.00 0.03 0.03 79 1013.4
20260509164311 58 50 0.9 1.7 0.00 0.03 0.03 79 1013.2
20260509163807 58 16 0.9 2.6 0.00 0.03 0.03 80 1013.3
20260509163305 58 12 1.7 2.6 0.00 0.03 0.03 80 1013.4
20260509162804 58 83 0.9 1.7 0.00 0.03 0.03 80 1013.4
20260509162306 58 47 0.9 2.6 0.00 0.03 0.03 81 1013.2
20260509161759 58 165 0.9 1.7 0.00 0.03 0.03 78 1013.4
20260509161255 58 165 0.9 1.7 0.00 0.03 0.03 79 1013.4
20260509160750 59 166 0.9 0.9 0.00 0.03 0.03 78 1013.6
20260509160247 58 166 0.0 0.0 0.00 0.03 0.03 78 1013.7
20260509155742 58 166 0.0 0.9 0.00 0.03 0.03 78 1013.6
20260509155239 58 166 0.9 1.7 0.00 0.03 0.03 79 1013.4
20260509154735 58 157 0.9 1.7 0.00 0.03 0.03 77 1013.2
20260509154232 58 147 0.9 1.7 0.00 0.03 0.03 78 1013.3
20260509153730 58 147 0.0 0.9 0.00 0.03 0.03 81 1013.3
20260509153225 58 149 1.7 1.7 0.00 0.03 0.03 79 1013.3
20260509152722 58 53 0.9 1.7 0.00 0.03 0.03 79 1013.4
20260509152219 58 162 0.9 1.7 0.00 0.03 0.03 80 1013.3
20260509151715 57 17 0.0 0.9 0.00 0.03 0.03 81 1013.5
20260509151212 57 104 0.9 3.5 0.00 0.03 0.03 81 1013.4
20260509150710 57 31 0.9 1.7 0.00 0.03 0.03 82 1013.4
20260509150208 56 87 1.7 3.5 0.00 0.03 0.03 81 1013.4
20260509145704 57 52 0.0 1.7 0.00 0.03 0.03 82 1013.6
20260509145200 56 25 1.7 2.6 0.00 0.03 0.03 85 1013.6
20260509144656 56 30 3.5 5.2 0.00 0.03 0.03 87 1013.6
20260509144154 56 55 0.9 1.7 0.00 0.03 0.03 85 1013.7
20260509143651 55 22 0.0 1.7 0.00 0.03 0.03 88 1013.7
20260509143148 55 26 0.9 2.6 0.00 0.03 0.03 89 1013.6
20260509142643 54 34 0.0 0.9 0.00 0.03 0.03 89 1013.4
20260509142140 54 34 0.9 1.7 0.00 0.03 0.03 90 1013.8
20260509141636 54 34 0.9 1.7 0.00 0.03 0.03 91 1013.7
20260509141132 53 34 0.0 1.7 0.00 0.03 0.03 92 1013.6
20260509140629 53 34 0.0 0.9 0.00 0.03 0.03 93 1013.6
20260509140127 53 34 0.0 1.7 0.00 0.03 0.03 94 1013.4
20260509135624 53 34 0.0 0.0 0.00 0.03 0.03 94 1013.4
20260509135123 53 34 0.9 1.7 0.00 0.03 0.03 94 1013.3
20260509134619 53 34 0.0 0.9 0.00 0.03 0.03 94 1013.3
20260509134116 52 34 1.7 2.6 0.00 0.03 0.03 94 1013.2
20260509133614 52 35 0.0 1.7 0.00 0.03 0.03 94 1013.5
20260509133111 52 35 0.0 0.9 0.00 0.03 0.03 94 1013.6
20260509132609 52 34 0.9 1.7 0.00 0.03 0.03 95 1013.2
20260509132107 52 35 1.7 1.7 0.05 0.03 0.03 95 1013.3
20260509131602 52 168 0.0 0.9 0.05 0.03 0.03 95 1013.5
20260509131100 52 168 0.0 0.0 0.00 0.02 0.02 95 1013.6
20260509130555 52 168 0.0 0.0 0.00 0.02 0.02 95 1013.5
20260509130052 52 168 0.9 0.9 0.00 0.02 0.02 94 1013.5
20260509125549 52 28 0.0 0.0 0.00 0.02 0.02 94 1013.5
20260509125045 52 28 0.0 0.0 0.00 0.02 0.02 93 1013.4
20260509124542 52 28 0.9 0.9 0.00 0.02 0.02 93 1013.3
20260509124039 52 179 0.0 0.0 0.00 0.02 0.02 93 1013.4
20260509123537 52 179 0.9 1.7 0.00 0.02 0.02 93 1013.2
20260509123033 52 177 0.0 0.9 0.07 0.02 0.02 93 1013.3
20260509122529 52 177 0.9 2.6 0.07 0.02 0.02 92 1013.3
20260509122027 52 346 0.9 0.9 0.00 0.01 0.01 91 1013.4
20260509121523 52 346 1.7 1.7 0.00 0.01 0.01 89 1013.2
20260509121021 52 46 2.6 2.6 0.05 0.01 0.01 88 1013.2
20260509120519 53 64 0.0 0.0 0.05 0.01 0.01 90 1013.5
20260509120012 52 127 0.0 0.0 0.00 0.00 0.00 89 1013.4
20260509115509 53 71 0.0 0.0 0.00 0.00 0.00 87 1013.5
20260509115006 53 24 0.0 0.9 0.00 0.00 0.00 85 1013.3
20260509114504 53 38 1.7 1.7 0.00 0.00 0.00 84 1013.3
20260509114003 53 342 0.0 0.0 0.00 0.00 0.00 83 1013.4
20260509113500 53 336 0.0 0.9 0.00 0.00 0.00 85 1013.7
20260509112957 53 346 0.9 1.7 0.00 0.00 0.00 84 1013.5
20260509112454 53 53 0.0 0.0 0.00 0.00 0.00 84 1013.5
20260509111950 53 72 0.0 0.0 0.00 0.00 0.00 84 1013.4
20260509111448 53 85 0.0 0.0 0.00 0.00 0.00 84 1013.3
20260509110946 53 51 1.7 2.6 0.00 0.00 0.00 84 1013.2
20260509110442 53 53 1.7 2.6 0.00 0.00 0.00 82 1013.3
20260509105939 52 280 1.7 1.7 0.00 0.00 0.00 81 1013.4
20260509105438 53 16 0.9 1.7 0.00 0.00 0.00 83 1013.4
20260509104935 53 16 0.0 0.0 0.00 0.00 0.00 79 1013.2
20260509104431 53 16 0.0 0.0 0.00 0.00 0.00 79 1013.1
20260509103928 53 16 0.0 0.9 0.00 0.00 0.00 80 1013.0
20260509103426 53 83 0.0 0.0 0.00 0.00 0.00 76 1012.9
20260509102924 53 83 0.9 0.9 0.00 0.00 0.00 76 1013.0
20260509102421 53 168 3.5 3.5 0.00 0.00 0.00 77 1013.0
20260509101917 53 93 1.7 1.7 0.00 0.00 0.00 78 1012.7
20260509101414 53 55 2.6 5.2 0.00 0.00 0.00 78 1012.5
20260509100911 52 28 1.7 1.7 0.00 0.00 0.00 81 1012.5
20260509100408 51 278 0.0 0.9 0.00 0.00 0.00 83 1012.6
20260509095905 52 278 0.9 0.9 0.00 0.00 0.00 85 1012.7
20260509095402 52 278 0.0 0.9 0.00 0.00 0.00 84 1012.7
20260509094859 52 278 0.0 0.0 0.00 0.00 0.00 84 1012.6
20260509094355 52 278 0.0 0.0 0.00 0.00 0.00 84 1012.6
20260509093854 52 278 0.0 0.9 0.00 0.00 0.00 85 1012.6
20260509093350 52 278 0.0 0.0 0.00 0.00 0.00 84 1012.5
20260509092849 52 278 0.0 0.0 0.00 0.00 0.00 83 1012.5
20260509092346 52 278 0.0 0.0 0.00 0.00 0.00 83 1012.7
20260509091844 52 278 0.0 0.0 0.00 0.00 0.00 84 1012.7
20260509091341 52 278 0.0 0.0 0.00 0.00 0.00 83 1012.5
20260509090838 53 278 0.0 0.0 0.00 0.00 0.00 81 1012.5
20260509090335 53 278 0.0 0.0 0.00 0.00 0.00 80 1012.4
20260509085832 53 278 0.0 0.9 0.00 0.00 0.00 79 1012.5
20260509085329 53 278 0.0 0.9 0.00 0.00 0.00 79 1012.4
20260509084826 53 278 0.0 0.0 0.00 0.00 0.00 78 1012.5
20260509084323 53 278 0.0 0.0 0.00 0.00 0.00 78 1012.6
20260509083821 53 278 0.0 0.0 0.00 0.00 0.00 77 1012.5
20260509083318 53 278 0.0 1.7 0.00 0.00 0.00 79 1012.6
20260509082814 53 278 0.0 0.0 0.00 0.00 0.00 77 1012.6
20260509082311 53 279 3.5 3.5 0.00 0.00 0.00 79 1012.4
20260509081809 53 14 0.9 1.7 0.00 0.00 0.00 79 1012.6
20260509081305 53 353 0.0 0.9 0.00 0.00 0.00 77 1012.7
20260509080803 53 306 0.9 0.9 0.00 0.00 0.00 78 1012.6
20260509080301 53 39 0.0 0.9 0.00 0.00 0.00 79 1012.5
20260509075759 53 31 1.7 1.7 0.00 0.00 0.00 80 1012.7
20260509075256 54 35 0.0 0.9 0.00 0.00 0.00 76 1012.7
20260509074753 53 39 0.9 1.7 0.00 0.00 0.00 76 1012.7
20260509074251 53 351 0.0 0.9 0.00 0.00 0.00 79 1012.8
20260509073746 52 341 0.0 0.0 0.00 0.00 0.00 82 1012.9
20260509073243 52 347 0.0 0.9 0.00 0.00 0.00 81 1012.8
20260509072739 52 315 0.9 0.9 0.00 0.00 0.00 81 1012.9
20260509072236 51 24 0.0 0.9 0.00 0.00 0.00 83 1012.6
20260509071733 51 29 0.9 0.9 0.00 0.00 0.00 85 1012.7
20260509071230 51 31 0.9 3.5 0.00 0.00 0.00 83 1012.5
20260509070727 51 323 0.9 0.9 0.00 0.00 0.00 82 1012.8
20260509070224 51 318 0.0 0.0 0.00 0.00 0.00 84 1012.6
20260509065720 51 318 0.0 0.0 0.00 0.00 0.00 81 1012.5
20260509065216 51 318 0.0 0.0 0.00 0.00 0.00 83 1012.8
20260509064713 51 318 0.0 0.0 0.00 0.00 0.00 85 1012.6
20260509064211 51 318 0.0 0.0 0.00 0.00 0.00 85 1012.7
20260509063708 51 318 0.0 0.0 0.00 0.00 0.00 85 1012.8
20260509063204 50 318 0.0 0.0 0.00 0.00 0.00 85 1012.6
20260509062701 50 318 0.0 0.0 0.00 0.00 0.00 84 1012.8
20260509062158 50 318 0.0 0.0 0.00 0.00 0.00 86 1012.8
20260509061655 50 318 0.0 0.0 0.00 0.00 0.00 85 1013.1
20260509061153 50 318 0.0 0.0 0.00 0.00 0.00 84 1013.2
20260509060650 51 318 0.0 0.0 0.00 0.00 0.00 84 1013.1
20260509060146 51 318 0.0 0.0 0.00 0.00 0.00 84 1013.0
20260509055642 51 318 0.0 0.0 0.00 0.00 0.00 84 1013.2
20260509055138 51 318 0.0 0.0 0.00 0.00 0.00 85 1013.2
20260509054635 51 318 0.0 0.0 0.00 0.00 0.00 86 1013.2
20260509054132 51 318 0.0 0.0 0.00 0.00 0.00 83 1013.1
20260509053631 51 318 0.0 0.0 0.00 0.00 0.00 83 1013.4
20260509053127 52 318 0.0 0.0 0.00 0.00 0.00 84 1013.3
20260509052625 52 318 0.0 0.0 0.00 0.00 0.00 82 1013.3
20260509052122 52 318 0.0 0.0 0.00 0.00 0.00 84 1013.3
20260509051620 52 318 0.0 0.0 0.00 0.00 0.00 83 1013.3
20260509051117 52 318 0.0 0.0 0.00 0.00 0.00 84 1013.5
20260509050614 52 318 0.0 0.0 0.00 0.00 0.00 83 1013.3
20260509050110 52 291 0.0 0.0 0.00 0.00 0.00 83 1013.3
20260509045608 52 291 0.0 0.9 0.00 0.00 0.00 83 1013.3
20260509045105 52 291 0.9 0.9 0.00 0.00 0.00 81 1013.1
20260509044602 52 291 0.9 0.9 0.00 0.00 0.00 79 1013.3
20260509044059 53 297 0.0 0.9 0.00 0.00 0.00 82 1013.2
20260509043555 52 297 0.0 0.0 0.00 0.00 0.00 81 1013.3
20260509043051 52 297 0.0 0.0 0.00 0.00 0.00 82 1013.1
20260509042548 53 297 0.0 0.9 0.00 0.00 0.00 76 1013.2
20260509042044 53 297 0.0 0.9 0.00 0.00 0.00 77 1013.1
20260509041541 53 303 0.9 0.9 0.00 0.00 0.00 77 1013.3
20260509041039 53 343 0.0 0.0 0.00 0.00 0.00 77 1013.3
20260509040537 53 343 0.0 0.0 0.00 0.00 0.00 78 1013.2
20260509040033 53 343 0.0 0.0 0.00 0.00 0.00 76 1013.5
20260509035530 52 343 0.0 0.0 0.00 0.00 0.00 77 1013.6
20260509035027 52 343 0.0 0.0 0.00 0.00 0.00 81 1013.5
20260509034525 52 343 0.0 0.0 0.00 0.00 0.00 79 1013.6
20260509034022 52 343 0.0 0.0 0.00 0.00 0.00 79 1013.7
20260509033519 52 341 0.0 0.0 0.00 0.00 0.00 78 1013.6
20260509033016 52 340 0.0 0.0 0.00 0.00 0.00 81 1013.5
20260509032513 53 340 0.0 0.0 0.00 0.00 0.00 79 1013.5
20260509032010 53 324 0.0 0.0 0.00 0.00 0.00 78 1013.6
20260509031507 53 324 0.0 0.0 0.00 0.00 0.00 79 1013.8
20260509031004 54 324 0.0 0.0 0.00 0.00 0.00 78 1013.8
20260509030502 54 324 0.0 0.0 0.00 0.00 0.00 78 1013.6
20260509025959 55 324 0.0 0.0 0.00 0.00 0.00 76 1013.7
20260509025454 55 29 0.0 0.9 0.00 0.00 0.00 75 1013.7
20260509024949 56 274 1.7 2.6 0.00 0.00 0.00 75 1013.9
20260509024446 56 290 0.0 0.9 0.00 0.00 0.00 73 1013.7
20260509023943 57 290 0.0 0.0 0.00 0.00 0.00 70 1013.8
20260509023440 57 290 0.0 1.7 0.00 0.00 0.00 73 1013.8
20260509022937 57 290 0.9 0.9 0.00 0.00 0.00 73 1013.9
20260509022434 57 290 0.0 0.0 0.00 0.00 0.00 76 1013.9
20260509021931 57 290 0.0 0.0 0.00 0.00 0.00 67 1013.9
20260509021428 57 290 0.0 0.0 0.00 0.00 0.00 69 1013.9
20260509020926 57 290 0.0 0.0 0.00 0.00 0.00 72 1014.0
20260509020424 57 290 0.0 0.0 0.00 0.00 0.00 72 1013.9
20260509015920 57 290 0.0 0.0 0.00 0.00 0.00 68 1014.0
20260509015420 57 290 0.0 0.0 0.00 0.00 0.00 70 1014.0
20260509014915 57 290 0.0 0.0 0.00 0.00 0.00 68 1013.9
20260509014412 57 290 0.0 0.0 0.00 0.00 0.00 70 1014.0
20260509013909 57 290 0.0 0.0 0.00 0.00 0.00 68 1013.7
20260509013406 57 290 0.0 0.0 0.00 0.00 0.00 69 1013.8
20260509012901 57 290 0.9 1.7 0.00 0.00 0.00 69 1013.8
20260509012358 57 292 0.0 0.0 0.00 0.00 0.00 67 1014.0
20260509011855 58 292 0.0 0.0 0.00 0.00 0.00 68 1013.6
20260509011353 58 292 0.0 0.9 0.00 0.00 0.00 65 1013.6
20260509010851 57 292 0.0 0.0 0.00 0.00 0.00 70 1013.6
20260509010348 57 292 0.0 0.0 0.00 0.00 0.00 70 1013.4
20260509005845 58 292 0.0 0.0 0.00 0.00 0.00 71 1013.5
20260509005343 58 292 0.0 0.0 0.00 0.00 0.00 64 1013.7
20260509004843 58 292 0.0 0.0 0.00 0.00 0.00 67 1013.7
20260509004339 58 292 0.0 0.9 0.00 0.00 0.00 66 1013.6
20260509003837 58 316 0.0 0.0 0.00 0.00 0.00 61 1013.6
20260509003335 58 318 0.0 0.0 0.00 0.00 0.00 64 1013.5
20260509002832 58 318 0.0 0.0 0.00 0.00 0.00 69 1013.4
20260509002329 59 318 0.0 0.0 0.00 0.00 0.00 68 1013.5
20260509001827 59 318 0.0 0.0 0.00 0.00 0.00 65 1013.4
20260509001322 60 318 0.0 0.0 0.00 0.00 0.00 64 1013.3
20260509000820 61 317 0.0 0.0 0.00 0.00 0.00 60 1013.2
20260509000318 61 317 0.0 0.0 0.00 0.00 0.00 61 1013.3
20260508235814 62 317 0.0 0.0 0.00 0.00 0.00 58 1013.3
20260508235311 63 317 0.0 0.0 0.00 0.00 0.00 57 1013.0
20260508234808 64 317 0.0 0.0 0.00 0.00 0.00 54 1013.2
20260508234259 65 317 0.0 0.0 0.00 0.00 0.00 52 1013.2
20260508233758 64 317 0.0 0.0 0.00 0.00 0.00 50 1013.0
20260508233257 64 317 0.9 1.7 0.00 0.00 0.00 51 1013.2
20260508232753 65 353 0.9 0.9 0.00 0.00 0.00 46 1013.2
20260508232250 66 329 0.0 0.9 0.00 0.00 0.00 40 1013.1
20260508231748 67 48 0.0 0.0 0.00 0.00 0.00 42 1013.1
20260508231244 67 40 0.9 0.9 0.00 0.00 0.00 44 1013.1
20260508230741 67 26 1.7 1.7 0.00 0.00 0.00 49 1013.2
20260508230237 67 47 2.6 2.6 0.00 0.00 0.00 38 1013.0
20260508225735 67 332 0.9 0.9 0.00 0.00 0.00 39 1013.1
20260508225231 67 275 0.9 2.6 0.00 0.00 0.00 39 1013.1
20260508224729 67 295 0.0 1.7 0.00 0.00 0.00 40 1013.2
20260508224227 67 346 0.9 1.7 0.00 0.00 0.00 41 1013.2
20260508223724 67 309 1.7 3.5 0.00 0.00 0.00 39 1013.4
20260508223221 67 293 1.7 2.6 0.00 0.00 0.00 39 1013.3
20260508222719 67 339 1.7 2.6 0.00 0.00 0.00 39 1013.3
20260508222216 67 10 0.9 2.6 0.00 0.00 0.00 39 1013.2
20260508221712 67 312 1.7 3.5 0.00 0.00 0.00 39 1013.4
20260508221208 67 324 0.9 1.7 0.00 0.00 0.00 39 1013.2
20260508220704 67 334 3.5 3.5 0.00 0.00 0.00 38 1013.2
20260508220201 67 285 2.6 3.5 0.00 0.00 0.00 39 1013.2
20260508215657 69 321 3.5 7.0 0.00 0.00 0.00 37 1013.3
20260508215154 69 325 3.5 5.2 0.00 0.00 0.00 38 1013.2
20260508214651 68 299 3.5 7.0 0.00 0.00 0.00 38 1013.3
20260508214149 67 343 3.5 5.2 0.00 0.00 0.00 37 1013.5
20260508213645 67 324 0.9 2.6 0.00 0.00 0.00 37 1013.3
20260508213141 66 296 1.7 2.6 0.00 0.00 0.00 39 1013.4
20260508212638 66 298 1.7 6.1 0.00 0.00 0.00 38 1013.6
20260508212134 66 265 5.2 7.0 0.00 0.00 0.00 36 1013.6
20260508211634 66 330 2.6 6.1 0.00 0.00 0.00 37 1013.7
20260508211131 66 335 1.7 5.2 0.00 0.00 0.00 37 1013.6
20260508210628 66 281 6.1 7.0 0.00 0.00 0.00 37 1013.6
20260508210126 66 234 0.9 5.2 0.00 0.00 0.00 37 1013.5
20260508205623 66 288 3.5 5.2 0.00 0.00 0.00 37 1013.4
20260508205119 66 331 3.5 5.2 0.00 0.00 0.00 35 1013.2
20260508204615 67 302 0.9 2.6 0.00 0.00 0.00 36 1013.5
20260508204111 66 339 3.5 6.1 0.00 0.00 0.00 35 1013.4
20260508203608 66 299 2.6 5.2 0.00 0.00 0.00 37 1013.8
20260508203104 66 284 5.2 8.7 0.00 0.00 0.00 36 1013.8
20260508202600 67 307 2.6 8.7 0.00 0.00 0.00 37 1013.8
20260508202058 67 280 3.5 6.1 0.00 0.00 0.00 36 1013.8
20260508201554 67 277 2.6 6.1 0.00 0.00 0.00 36 1013.9
20260508201051 67 324 9.6 12.2 0.00 0.00 0.00 34 1013.8
20260508200548 67 307 3.5 6.1 0.00 0.00 0.00 35 1013.9
20260508200043 68 290 3.5 6.1 0.00 0.00 0.00 35 1013.8
20260508195540 68 276 8.7 11.3 0.00 0.00 0.00 33 1013.7
20260508195036 68 271 3.5 8.7 0.00 0.00 0.00 34 1013.5
20260508194534 69 311 6.1 7.8 0.00 0.00 0.00 33 1013.7
20260508194031 69 295 7.0 8.7 0.00 0.00 0.00 32 1013.8
20260508193527 69 288 7.8 12.2 0.00 0.00 0.00 32 1013.9
20260508193024 70 258 6.1 7.8 0.00 0.00 0.00 32 1013.9
20260508192521 69 274 5.2 13.0 0.00 0.00 0.00 31 1013.9
20260508192018 68 288 1.7 11.3 0.00 0.00 0.00 34 1013.7
20260508191515 68 286 8.7 11.3 0.00 0.00 0.00 32 1014.1
20260508191011 68 301 4.3 7.8 0.00 0.00 0.00 34 1014.1
20260508190509 67 269 4.3 8.7 0.00 0.00 0.00 33 1014.4
20260508190005 67 278 2.6 8.7 0.00 0.00 0.00 35 1014.3
20260508185502 67 298 2.6 7.0 0.00 0.00 0.00 33 1014.4
20260508185000 67 312 5.2 8.7 0.00 0.00 0.00 33 1014.4
20260508184457 68 233 4.3 12.2 0.00 0.00 0.00 31 1014.6
20260508183953 68 293 5.2 11.3 0.00 0.00 0.00 31 1014.3
20260508183450 68 283 7.0 11.3 0.00 0.00 0.00 33 1014.5
20260508182945 69 331 5.2 12.2 0.00 0.00 0.00 32 1014.6
20260508182443 68 316 5.2 7.0 0.00 0.00 0.00 32 1014.4
20260508181943 68 272 7.8 8.7 0.00 0.00 0.00 33 1014.5
20260508181440 67 282 7.0 8.7 0.00 0.00 0.00 33 1014.6
20260508180938 67 304 2.6 7.8 0.00 0.00 0.00 35 1014.6
20260508180435 68 328 3.5 7.0 0.00 0.00 0.00 32 1014.7
20260508175930 67 255 4.3 5.2 0.00 0.00 0.00 33 1014.7
20260508175427 68 284 3.5 5.2 0.00 0.00 0.00 33 1014.9
20260508174925 67 284 4.3 11.3 0.00 0.00 0.00 39 1015.1
20260508174423 66 87 4.3 12.2 0.00 0.00 0.00 33 1015.1